,,PressureMeas_1m,,PRMeasQMR101_1,,RHStat155_1m_1,,SRMeasQMS101R_1m,,TAStat155_1m_1,,GenWind_1,,GenWind_1,
2017-06-16, 07:00:06,VALID,917.214,VALID,0.0,VALID,95.958,VALID,38.13,VALID,20.578,VALID,127.0,VALID,2.195,
2017-06-16, 07:01:06,VALID,917.224,VALID,0.0,VALID,95.844,VALID,36.333,VALID,20.609,VALID,129.0,VALID,2.228,
2017-06-16, 07:02:06,VALID,917.222,VALID,0.0,VALID,95.513,VALID,36.449,VALID,20.641,VALID,133.0,VALID,2.322,
2017-06-16, 07:03:06,VALID,917.234,VALID,0.0,VALID,95.238,VALID,37.428,VALID,20.699,VALID,134.0,VALID,2.248,
2017-06-16, 07:04:06,VALID,917.25,VALID,0.0,VALID,95.131,VALID,37.896,VALID,20.73,VALID,136.0,VALID,2.079,
2017-06-16, 07:05:06,VALID,917.267,VALID,0.0,VALID,95.142,VALID,42.776,VALID,20.75,VALID,131.0,VALID,2.112,
2017-06-16, 07:06:06,VALID,917.283,VALID,0.0,VALID,95.108,VALID,47.065,VALID,20.784,VALID,132.0,VALID,2.351,
2017-06-16, 07:07:06,VALID,917.297,VALID,0.0,VALID,94.857,VALID,49.024,VALID,20.829,VALID,137.0,VALID,2.341,
2017-06-16, 07:08:06,VALID,917.296,VALID,0.0,VALID,94.69,VALID,48.929,VALID,20.882,VALID,146.0,VALID,2.613,
2017-06-16, 07:09:06,VALID,917.31,VALID,0.0,VALID,94.475,VALID,49.113,VALID,20.912,VALID,145.0,VALID,2.64,
2017-06-16, 07:10:06,VALID,917.308,VALID,0.0,VALID,94.379,VALID,52.547,VALID,20.918,VALID,154.0,VALID,2.458,
2017-06-16, 07:11:06,VALID,917.332,VALID,0.0,VALID,94.492,VALID,58.59,VALID,20.912,VALID,146.0,VALID,2.395,
2017-06-16, 07:12:06,VALID,917.336,VALID,0.0,VALID,94.503,VALID,65.715,VALID,20.915,VALID,147.0,VALID,2.143,
2017-06-16, 07:13:06,VALID,917.332,VALID,0.0,VALID,94.378,VALID,69.683,VALID,20.947,VALID,151.0,VALID,2.239,
2017-06-16, 07:14:06,VALID,917.326,VALID,0.0,VALID,94.286,VALID,71.517,VALID,20.987,VALID,143.0,VALID,2.075,
2017-06-16, 07:15:06,VALID,917.335,VALID,0.0,VALID,94.07,VALID,101.612,VALID,21.029,VALID,140.0,VALID,1.946,
2017-06-16, 07:16:06,VALID,917.323,VALID,0.0,VALID,93.82,VALID,143.835,VALID,21.079,VALID,132.0,VALID,1.885,
2017-06-16, 07:17:06,VALID,917.321,VALID,0.0,VALID,93.656,VALID,162.69,VALID,21.161,VALID,132.0,VALID,1.712,
2017-06-16, 07:18:06,VALID,917.317,VALID,0.0,VALID,93.377,VALID,165.605,VALID,21.226,VALID,128.0,VALID,1.961,
2017-06-16, 07:19:06,VALID,917.307,VALID,0.0,VALID,93.233,VALID,122.951,VALID,21.277,VALID,129.0,VALID,1.802,
2017-06-16, 07:20:06,VALID,917.313,VALID,0.0,VALID,93.132,VALID,107.867,VALID,21.283,VALID,126.0,VALID,2.026,
2017-06-16, 07:21:06,VALID,917.32,VALID,0.0,VALID,93.214,VALID,104.068,VALID,21.276,VALID,130.0,VALID,2.207,
2017-06-16, 07:22:06,VALID,917.343,VALID,0.0,VALID,93.079,VALID,92.739,VALID,21.278,VALID,133.0,VALID,2.063,
2017-06-16, 07:23:06,VALID,917.367,VALID,0.0,VALID,93.059,VALID,83.254,VALID,21.27,VALID,130.0,VALID,2.275,
2017-06-16, 07:24:06,VALID,917.386,VALID,0.0,VALID,93.077,VALID,83.163,VALID,21.245,VALID,132.0,VALID,2.258,
2017-06-16, 07:25:06,VALID,917.427,VALID,0.0,VALID,92.892,VALID,86.858,VALID,21.232,VALID,126.0,VALID,2.746,
2017-06-16, 07:26:06,VALID,917.458,VALID,0.0,VALID,92.77,VALID,90.367,VALID,21.246,VALID,128.0,VALID,2.378,
2017-06-16, 07:27:06,VALID,917.482,VALID,0.0,VALID,92.902,VALID,86.438,VALID,21.24,VALID,123.0,VALID,2.102,
2017-06-16, 07:28:06,VALID,917.518,VALID,0.0,VALID,93.363,VALID,79.288,VALID,21.216,VALID,123.0,VALID,2.05,
2017-06-16, 07:29:06,VALID,917.537,VALID,0.0,VALID,93.513,VALID,75.02,VALID,21.187,VALID,124.0,VALID,1.976,
2017-06-16, 07:30:06,VALID,917.55,VALID,0.0,VALID,93.659,VALID,71.651,VALID,21.161,VALID,126.0,VALID,2.268,
2017-06-16, 07:31:06,VALID,917.558,VALID,0.0,VALID,93.53,VALID,67.958,VALID,21.149,VALID,126.0,VALID,1.846,
2017-06-16, 07:32:06,VALID,917.57,VALID,0.0,VALID,93.728,VALID,65.565,VALID,21.142,VALID,133.0,VALID,2.013,
2017-06-16, 07:33:06,VALID,917.589,VALID,0.0,VALID,93.919,VALID,67.122,VALID,21.129,VALID,116.0,VALID,1.735,
2017-06-16, 07:34:06,VALID,917.602,VALID,0.0,VALID,94.047,VALID,72.844,VALID,21.101,VALID,112.0,VALID,2.231,
2017-06-16, 07:35:06,VALID,917.614,VALID,0.0,VALID,94.269,VALID,77.41,VALID,21.08,VALID,116.0,VALID,1.969,
2017-06-16, 07:36:06,VALID,917.618,VALID,0.0,VALID,94.041,VALID,80.511,VALID,21.059,VALID,124.0,VALID,2.157,
2017-06-16, 07:37:06,VALID,917.646,VALID,0.0,VALID,94.16,VALID,82.987,VALID,21.072,VALID,124.0,VALID,2.281,
2017-06-16, 07:38:06,VALID,917.655,VALID,0.0,VALID,94.137,VALID,88.058,VALID,21.087,VALID,113.0,VALID,1.838,
2017-06-16, 07:39:06,VALID,917.65,VALID,0.0,VALID,94.264,VALID,96.466,VALID,21.1,VALID,113.0,VALID,2.535,
2017-06-16, 07:40:06,VALID,917.654,VALID,0.0,VALID,94.056,VALID,107.884,VALID,21.129,VALID,122.0,VALID,1.718,
2017-06-16, 07:41:06,VALID,917.67,VALID,0.0,VALID,94.11,VALID,109.974,VALID,21.164,VALID,113.0,VALID,1.571,
2017-06-16, 07:42:06,VALID,917.682,VALID,0.0,VALID,94.233,VALID,102.73,VALID,21.194,VALID,115.0,VALID,1.549,
2017-06-16, 07:43:06,VALID,917.686,VALID,0.0,VALID,94.098,VALID,98.701,VALID,21.227,VALID,107.0,VALID,1.382,
2017-06-16, 07:44:06,VALID,917.706,VALID,0.0,VALID,93.585,VALID,99.151,VALID,21.267,VALID,119.0,VALID,1.892,
2017-06-16, 07:45:06,VALID,917.726,VALID,0.0,VALID,93.155,VALID,102.355,VALID,21.309,VALID,126.0,VALID,1.787,
2017-06-16, 07:46:06,VALID,917.74,VALID,0.0,VALID,93.275,VALID,112.293,VALID,21.353,VALID,111.0,VALID,1.897,
2017-06-16, 07:47:06,VALID,917.744,VALID,0.0,VALID,92.732,VALID,126.119,VALID,21.394,VALID,119.0,VALID,2.303,
2017-06-16, 07:48:06,VALID,917.737,VALID,0.0,VALID,92.971,VALID,155.927,VALID,21.448,VALID,127.0,VALID,1.905,
2017-06-16, 07:49:06,VALID,917.735,VALID,0.0,VALID,92.178,VALID,189.891,VALID,21.494,VALID,118.0,VALID,2.456,
2017-06-16, 07:50:06,VALID,917.747,VALID,0.0,VALID,91.526,VALID,301.27,VALID,21.564,VALID,118.0,VALID,2.304,
2017-06-16, 07:51:06,VALID,917.76,VALID,0.0,VALID,91.364,VALID,214.209,VALID,21.632,VALID,126.0,VALID,2.194,
2017-06-16, 07:52:06,VALID,917.796,VALID,0.0,VALID,91.482,VALID,163.907,VALID,21.722,VALID,131.0,VALID,1.879,
2017-06-16, 07:53:06,VALID,917.821,VALID,0.0,VALID,91.159,VALID,180.328,VALID,21.771,VALID,128.0,VALID,2.467,
2017-06-16, 07:54:06,VALID,917.859,VALID,0.0,VALID,90.945,VALID,175.662,VALID,21.777,VALID,123.0,VALID,2.998,
2017-06-16, 07:55:06,VALID,917.888,VALID,0.0,VALID,91.418,VALID,178.77,VALID,21.787,VALID,130.0,VALID,2.457,
2017-06-16, 07:56:06,VALID,917.905,VALID,0.0,VALID,91.118,VALID,273.662,VALID,21.84,VALID,128.0,VALID,2.21,
2017-06-16, 07:57:06,VALID,917.921,VALID,0.0,VALID,91.524,VALID,378.719,VALID,21.956,VALID,108.0,VALID,1.69,
2017-06-16, 07:58:06,VALID,917.927,VALID,0.0,VALID,90.365,VALID,380.822,VALID,22.059,VALID,119.0,VALID,2.187,
2017-06-16, 07:59:06,VALID,917.922,VALID,0.0,VALID,89.656,VALID,367.238,VALID,22.188,VALID,132.0,VALID,2.553,
2017-06-16, 08:00:06,VALID,917.917,VALID,0.0,VALID,88.857,VALID,282.445,VALID,22.301,VALID,113.0,VALID,1.882,
2017-06-16, 08:01:06,VALID,917.911,VALID,0.0,VALID,88.301,VALID,188.756,VALID,22.373,VALID,103.0,VALID,2.673,
2017-06-16, 08:02:06,VALID,917.912,VALID,0.0,VALID,87.573,VALID,188.395,VALID,22.376,VALID,103.0,VALID,2.486,
2017-06-16, 08:03:06,VALID,917.896,VALID,0.0,VALID,85.807,VALID,309.748,VALID,22.421,VALID,104.0,VALID,2.776,
2017-06-16, 08:04:06,VALID,917.896,VALID,0.0,VALID,86.518,VALID,276.591,VALID,22.493,VALID,87.0,VALID,2.145,
2017-06-16, 08:05:06,VALID,917.875,VALID,0.0,VALID,86.721,VALID,279.334,VALID,22.537,VALID,78.0,VALID,1.459,
2017-06-16, 08:06:06,VALID,917.891,VALID,0.0,VALID,87.351,VALID,346.152,VALID,22.604,VALID,106.0,VALID,2.107,
2017-06-16, 08:07:06,VALID,917.886,VALID,0.0,VALID,86.142,VALID,349.193,VALID,22.664,VALID,96.0,VALID,2.066,
2017-06-16, 08:08:06,VALID,917.886,VALID,0.0,VALID,85.715,VALID,351.083,VALID,22.722,VALID,96.0,VALID,1.973,
2017-06-16, 08:09:06,VALID,917.909,VALID,0.0,VALID,85.273,VALID,349.846,VALID,22.784,VALID,100.0,VALID,2.235,
2017-06-16, 08:10:06,VALID,917.916,VALID,0.0,VALID,84.697,VALID,351.331,VALID,22.852,VALID,101.0,VALID,1.961,
2017-06-16, 08:11:06,VALID,917.939,VALID,0.0,VALID,83.931,VALID,349.172,VALID,22.881,VALID,118.0,VALID,2.536,
2017-06-16, 08:12:06,VALID,917.945,VALID,0.0,VALID,83.446,VALID,358.904,VALID,22.916,VALID,139.0,VALID,2.613,
2017-06-16, 08:13:06,VALID,917.957,VALID,0.0,VALID,82.264,VALID,350.527,VALID,22.946,VALID,134.0,VALID,2.795,
2017-06-16, 08:14:06,VALID,917.969,VALID,0.0,VALID,82.531,VALID,347.138,VALID,22.936,VALID,136.0,VALID,2.236,
2017-06-16, 08:15:06,VALID,917.97,VALID,0.0,VALID,82.767,VALID,359.599,VALID,22.918,VALID,110.0,VALID,1.304,
2017-06-16, 08:16:06,VALID,917.987,VALID,0.0,VALID,83.752,VALID,358.498,VALID,22.989,VALID,138.0,VALID,1.359,
2017-06-16, 08:17:06,VALID,917.991,VALID,0.0,VALID,84.354,VALID,358.706,VALID,23.064,VALID,119.0,VALID,2.119,
2017-06-16, 08:18:06,VALID,917.984,VALID,0.0,VALID,84.769,VALID,255.024,VALID,23.131,VALID,107.0,VALID,2.032,
2017-06-16, 08:19:06,VALID,918.018,VALID,0.0,VALID,83.369,VALID,294.14,VALID,23.178,VALID,116.0,VALID,2.255,
2017-06-16, 08:20:06,VALID,918.012,VALID,0.0,VALID,81.983,VALID,141.814,VALID,23.099,VALID,111.0,VALID,2.504,
2017-06-16, 08:21:06,VALID,918.015,VALID,0.0,VALID,81.637,VALID,277.844,VALID,23.061,VALID,140.0,VALID,2.605,
2017-06-16, 08:22:06,VALID,918.031,VALID,0.0,VALID,81.91,VALID,225.625,VALID,23.001,VALID,131.0,VALID,2.014,
2017-06-16, 08:23:06,VALID,918.034,VALID,0.0,VALID,82.447,VALID,367.79,VALID,22.972,VALID,124.0,VALID,2.62,
2017-06-16, 08:24:06,VALID,918.024,VALID,0.0,VALID,82.466,VALID,408.755,VALID,22.974,VALID,118.0,VALID,2.982,
2017-06-16, 08:25:06,VALID,918.025,VALID,0.0,VALID,83.618,VALID,341.229,VALID,23.006,VALID,133.0,VALID,1.873,
2017-06-16, 08:26:06,VALID,918.009,VALID,0.0,VALID,82.934,VALID,217.77,VALID,23.072,VALID,140.0,VALID,2.609,
2017-06-16, 08:27:06,VALID,918.008,VALID,0.0,VALID,82.29,VALID,362.392,VALID,23.032,VALID,130.0,VALID,2.473,
2017-06-16, 08:28:06,VALID,917.992,VALID,0.0,VALID,82.429,VALID,398.132,VALID,23.013,VALID,111.0,VALID,2.675,
2017-06-16, 08:29:06,VALID,917.978,VALID,0.0,VALID,82.58,VALID,211.247,VALID,23.034,VALID,135.0,VALID,1.894,
2017-06-16, 08:30:06,VALID,917.965,VALID,0.0,VALID,82.989,VALID,188.828,VALID,23.094,VALID,129.0,VALID,2.399,
2017-06-16, 08:31:06,VALID,917.952,VALID,0.0,VALID,82.935,VALID,394.937,VALID,23.119,VALID,146.0,VALID,2.202,
2017-06-16, 08:32:06,VALID,917.953,VALID,0.0,VALID,82.09,VALID,405.554,VALID,23.182,VALID,135.0,VALID,2.022,
2017-06-16, 08:33:06,VALID,917.951,VALID,0.0,VALID,83.665,VALID,419.78,VALID,23.319,VALID,113.0,VALID,2.066,
2017-06-16, 08:34:06,VALID,917.947,VALID,0.0,VALID,81.566,VALID,430.489,VALID,23.414,VALID,104.0,VALID,2.648,
2017-06-16, 08:35:06,VALID,917.95,VALID,0.0,VALID,82.228,VALID,434.914,VALID,23.397,VALID,119.0,VALID,1.84,
2017-06-16, 08:36:06,VALID,917.943,VALID,0.0,VALID,81.843,VALID,433.286,VALID,23.461,VALID,134.0,VALID,2.354,
2017-06-16, 08:37:06,VALID,917.941,VALID,0.0,VALID,80.7,VALID,439.428,VALID,23.505,VALID,130.0,VALID,2.119,
2017-06-16, 08:38:06,VALID,917.925,VALID,0.0,VALID,80.319,VALID,445.695,VALID,23.52,VALID,147.0,VALID,3.073,
2017-06-16, 08:39:07,VALID,917.929,VALID,0.0,VALID,81.597,VALID,450.67,VALID,23.459,VALID,132.0,VALID,2.28,
2017-06-16, 08:40:07,VALID,917.939,VALID,0.0,VALID,80.801,VALID,452.074,VALID,23.44,VALID,122.0,VALID,2.234,
2017-06-16, 08:41:07,VALID,917.943,VALID,0.0,VALID,81.221,VALID,452.5,VALID,23.5,VALID,138.0,VALID,2.411,
2017-06-16, 08:42:07,VALID,917.932,VALID,0.0,VALID,81.441,VALID,452.686,VALID,23.548,VALID,141.0,VALID,1.87,
2017-06-16, 08:43:07,VALID,917.937,VALID,0.0,VALID,82.232,VALID,460.856,VALID,23.666,VALID,115.0,VALID,2.126,
2017-06-16, 08:44:07,VALID,917.924,VALID,0.0,VALID,81.079,VALID,462.891,VALID,23.685,VALID,101.0,VALID,2.345,
2017-06-16, 08:45:07,VALID,917.927,VALID,0.0,VALID,82.662,VALID,465.043,VALID,23.664,VALID,127.0,VALID,1.716,
2017-06-16, 08:46:07,VALID,917.915,VALID,0.0,VALID,81.289,VALID,463.929,VALID,23.759,VALID,149.0,VALID,2.039,
2017-06-16, 08:47:07,VALID,917.909,VALID,0.0,VALID,80.332,VALID,472.432,VALID,23.762,VALID,144.0,VALID,2.074,
2017-06-16, 08:48:07,VALID,917.894,VALID,0.0,VALID,79.47,VALID,479.207,VALID,23.725,VALID,121.0,VALID,2.082,
2017-06-16, 08:49:07,VALID,917.892,VALID,0.0,VALID,80.678,VALID,485.002,VALID,23.775,VALID,172.0,VALID,1.507,
2017-06-16, 08:50:07,VALID,917.889,VALID,0.0,VALID,80.007,VALID,488.997,VALID,23.912,VALID,158.0,VALID,2.495,
2017-06-16, 08:51:07,VALID,917.89,VALID,0.0,VALID,79.372,VALID,492.264,VALID,23.862,VALID,156.0,VALID,2.675,
2017-06-16, 08:52:07,VALID,917.921,VALID,0.0,VALID,79.664,VALID,492.968,VALID,23.853,VALID,107.0,VALID,2.509,
2017-06-16, 08:53:07,VALID,917.931,VALID,0.0,VALID,79.412,VALID,491.924,VALID,23.758,VALID,103.0,VALID,2.372,
2017-06-16, 08:54:07,VALID,917.952,VALID,0.0,VALID,79.617,VALID,493.068,VALID,23.708,VALID,122.0,VALID,1.817,
2017-06-16, 08:55:07,VALID,917.95,VALID,0.0,VALID,78.431,VALID,498.715,VALID,23.763,VALID,133.0,VALID,1.705,
2017-06-16, 08:56:07,VALID,917.956,VALID,0.0,VALID,80.847,VALID,505.406,VALID,23.864,VALID,115.0,VALID,1.271,
2017-06-16, 08:57:07,VALID,917.959,VALID,0.0,VALID,81.873,VALID,506.444,VALID,24.067,VALID,114.0,VALID,1.168,
2017-06-16, 08:58:07,VALID,917.966,VALID,0.0,VALID,82.258,VALID,513.251,VALID,24.263,VALID,96.0,VALID,1.277,
2017-06-16, 08:59:07,VALID,917.965,VALID,0.0,VALID,81.503,VALID,519.877,VALID,24.326,VALID,101.0,VALID,2.034,
2017-06-16, 09:00:07,VALID,917.972,VALID,0.0,VALID,77.429,VALID,523.464,VALID,24.181,VALID,108.0,VALID,2.001,
2017-06-16, 09:01:07,VALID,917.951,VALID,0.0,VALID,77.891,VALID,520.123,VALID,24.048,VALID,119.0,VALID,1.321,
2017-06-16, 09:02:07,VALID,917.954,VALID,0.0,VALID,79.002,VALID,498.975,VALID,24.117,VALID,159.0,VALID,1.768,
2017-06-16, 09:03:07,VALID,917.958,VALID,0.0,VALID,77.029,VALID,495.638,VALID,24.262,VALID,161.0,VALID,1.343,
2017-06-16, 09:04:07,VALID,917.955,VALID,0.0,VALID,77.132,VALID,457.33,VALID,24.389,VALID,174.0,VALID,2.124,
2017-06-16, 09:05:07,VALID,917.956,VALID,0.0,VALID,76.117,VALID,435.886,VALID,24.428,VALID,166.0,VALID,1.736,
2017-06-16, 09:06:07,VALID,917.982,VALID,0.0,VALID,76.36,VALID,547.883,VALID,24.425,VALID,148.0,VALID,1.498,
2017-06-16, 09:07:07,VALID,917.977,VALID,0.0,VALID,77.292,VALID,498.571,VALID,24.423,VALID,139.0,VALID,1.656,
2017-06-16, 09:08:07,VALID,917.98,VALID,0.0,VALID,76.593,VALID,550.236,VALID,24.421,VALID,161.0,VALID,1.417,
2017-06-16, 09:09:07,VALID,917.968,VALID,0.0,VALID,76.53,VALID,551.008,VALID,24.512,VALID,171.0,VALID,0.937,
2017-06-16, 09:10:07,VALID,917.95,VALID,0.0,VALID,75.15,VALID,549.401,VALID,24.7,VALID,185.0,VALID,0.61,
2017-06-16, 09:11:07,VALID,917.944,VALID,0.0,VALID,76.235,VALID,374.617,VALID,24.84,VALID,176.0,VALID,0.982,
2017-06-16, 09:12:07,VALID,917.943,VALID,0.0,VALID,75.129,VALID,207.287,VALID,24.889,VALID,164.0,VALID,1.477,
2017-06-16, 09:13:07,VALID,917.961,VALID,0.0,VALID,76.132,VALID,497.821,VALID,24.747,VALID,144.0,VALID,2.197,
2017-06-16, 09:14:07,VALID,917.973,VALID,0.0,VALID,76.025,VALID,570.387,VALID,24.517,VALID,146.0,VALID,2.83,
2017-06-16, 09:15:07,VALID,917.997,VALID,0.0,VALID,77.437,VALID,575.037,VALID,24.39,VALID,151.0,VALID,2.534,
2017-06-16, 09:16:07,VALID,918.018,VALID,0.0,VALID,77.814,VALID,578.003,VALID,24.422,VALID,155.0,VALID,0.962,
2017-06-16, 09:17:07,VALID,918.032,VALID,0.0,VALID,76.565,VALID,580.659,VALID,24.65,VALID,161.0,VALID,1.477,
2017-06-16, 09:18:07,VALID,918.081,VALID,0.0,VALID,76.306,VALID,580.897,VALID,24.774,VALID,116.0,VALID,2.495,
2017-06-16, 09:19:07,VALID,918.099,VALID,0.0,VALID,77.012,VALID,581.461,VALID,24.7,VALID,97.0,VALID,2.402,
2017-06-16, 09:20:07,VALID,918.12,VALID,0.0,VALID,74.922,VALID,582.363,VALID,24.678,VALID,0,
